Location: Hepcat Sky Observatory
(29.9800°N, 95.6500°W)
Time: 04:34:19
(UTC-05:00)

Cosmos 2366 rocket - Visible Passes

Search period start: 17 September 2014 00:00
Search period end: 27 September 2014 00:00
Orbit: 955 x 998 km, 82.9° (Epoch: 16 September)

Date Brightness Start Highest point End Pass type
(mag) Time Alt. Az. Time Alt. Az. Time Alt. Az.
17 Sep 4.0 05:06:24 20° S 05:10:44 75° E 05:16:52 10° N visible
18 Sep 6.4 03:48:34 11° ESE 03:51:40 15° E 03:55:00 10° NE visible
18 Sep 4.0 05:33:21 29° SSW 05:36:26 56° W 05:42:27 10° N visible
19 Sep 5.5 04:15:19 27° ESE 04:17:01 31° E 04:22:19 10° NNE visible
19 Sep 4.8 06:00:05 23° WSW 06:02:17 28° WNW 06:07:27 10° NNW visible
20 Sep 4.2 04:41:56 60° ESE 04:42:31 64° E 04:48:35 10° NNE visible
20 Sep 5.5 06:26:41 12° W 06:28:20 14° WNW 06:31:15 10° NW visible
21 Sep 6.5 03:23:40 13° E 03:23:40 13° E 03:25:59 10° ENE visible
21 Sep 3.9 05:08:25 65° WNW 05:08:25 65° WNW 05:14:18 10° N visible
22 Sep 5.8 03:50:04 25° ENE 03:50:04 25° ENE 03:53:51 10° NNE visible
22 Sep 4.7 05:34:48 32° WNW 05:34:48 32° WNW 05:39:28 10° NNW visible
23 Sep 5.1 04:16:22 38° NE 04:16:22 38° NE 04:20:18 10° NNE visible
23 Sep 5.5 06:01:06 16° WNW 06:01:06 16° WNW 06:03:42 10° NW visible
24 Sep 4.9 04:42:37 36° N 04:42:37 36° N 04:46:08 10° N visible
25 Sep 6.5 03:24:04 15° NE 03:24:04 15° NE 03:25:20 10° NE visible
25 Sep 5.3 05:08:48 24° NNW 05:08:48 24° NNW 05:11:26 10° NNW visible
26 Sep 6.1 03:50:12 19° NNE 03:50:12 19° NNE 03:51:58 10° NNE visible
26 Sep 5.8 05:34:55 13° NW 05:34:55 13° NW 05:35:59 10° NNW visible
